Location: Les Jeannots
(43.2262°N, 5.5774°E)
Time: 01:18:55
(UTC+00:00)

IRIS - Visible Passes

Search period start: 24 October 2020 00:00
Search period end: 03 November 2020 00:00
Orbit: 279 x 2710 km, 41.2° (Epoch: 23 October)

Date Brightness Start Highest point End Pass type
(mag) Time Alt. Az. Time Alt. Az. Time Alt. Az.
24 Oct 9.7 05:04:17 10° S 05:14:09 24° SE 05:25:27 10° E visible
25 Oct 9.8 04:14:41 10° SSE 04:21:31 16° ESE 04:29:12 10° E visible
26 Oct 9.4 05:18:23 10° SSW 05:29:45 36° SE 05:43:37 10° ENE visible
27 Oct 9.4 04:27:14 10° S 04:36:50 26° SE 04:48:38 10° E visible
28 Oct 9.5 03:37:08 10° SSE 03:44:13 18° ESE 03:52:40 10° E visible
28 Oct 9.0 05:33:33 10° SSW 05:45:34 49° SE 06:00:56 10° ENE visible
29 Oct 9.1 04:41:43 10° SSW 04:52:19 39° SE 05:06:21 10° ENE visible
30 Oct 9.1 03:50:25 10° S 03:59:25 29° SE 04:11:20 10° ENE visible
31 Oct 9.1 03:00:00 10° SSE 03:06:52 19° ESE 03:15:32 10° E visible
31 Oct 8.6 04:57:03 10° SW 05:08:05 52° SE 05:23:25 10° ENE visible
01 Nov 9.3 02:12:16 10° SE 02:14:36 11° ESE 02:17:08 10° ESE visible
01 Nov 8.6 04:05:09 10° SSW 04:14:51 41° SE 04:28:42 10° ENE visible
02 Nov 8.7 03:14:18 12° S 03:21:59 30° SE 03:33:37 10° ENE visible
02 Nov 8.2 05:12:57 10° SW 05:24:10 66° SSE 05:40:11 10° ENE visible
